Saint Louis, MO

1:29 PM CST on December 05, 2016 (GMT -0600)
Lambert-Saint Louis International

Weather History for KSTL - June, 2012

Change the Weather History Date:

Sunday, June 24, 2012

  Actual Average Record
Temperature  
Mean Temperature 85 °F 78 °F  
Max Temperature 99 °F 88 °F 102 °F (1988)
Min Temperature 70 °F 69 °F 48 °F (1974)
Degree Days  
Heating Degree Days 0 0  
Month to date heating degree days 5 3  
Since 1 June heating degree days 5 3  
Since 1 July heating degree days 3300 4533  
Cooling Degree Days 20 13  
Month to date cooling degree days 286 248  
Year to date cooling degree days 692 422  
Since 1 June cooling degree days 286 248  
Growing Degree Days 34 (Base 50)    
Moisture  
Dew Point 58 °F    
Average Humidity 43    
Maximum Humidity 57    
Minimum Humidity 28    
Precipitation  
Precipitation 0.00 in 0.14 in 2.94 in (2000)
Month to date precipitation 1.97 3.53  
Year to date precipitation 18.65 19.90  
Snow  
Snow 0.00 in 0.00 in 0.00 in (2015)
Month to date snowfall 0.0 0.0  
Since 1 June snowfall 0.0 0.0  
Since 1 July snowfall 6.3 17.7  
Snow Depth 0.00 in    
Sea Level Pressure  
Sea Level Pressure 29.92 in    
Wind  
Wind Speed 6 mph (ESE)    
Max Wind Speed 14 mph    
Max Gust Speed 17 mph    
Visibility 10 miles    
Events      
T = Trace of Precipitation, MM = Missing Value Source: NWS Daily Summary

Daily Weather History Graph

Daily Weather History Graph

Search for Another Location

Airport or City:

Trip Planner

Search our weather history database for the weather conditions in past years. The results will help you decide how hot, cold, wet, or windy it might be!

Date:

Astronomy

Jun. 24, 2012 Rise Set
Actual Time 5:37 AM CDT 8:30 PM CDT
Civil Twilight 5:05 AM CDT 9:02 PM CDT
Nautical Twilight 4:25 AM CDT 9:42 PM CDT
Astronomical Twilight 3:39 AM CDT 10:28 PM CDT
Moon 10:40 AM CDT (6/24) 11:32 PM CDT (6/24)
Length of Visible Light 15h 56m
Length of Day
14h 52m
Waxing Crescent, 25% of the Moon is Illuminated
Jun 24
Waxing Crescent
Jun 26
First Quarter
Jul 3
Full
Jul 10
Last Quarter
Jul 18
New

Hourly Weather History & Observations

Time (CDT) Temp. Heat Index Dew Point Humidity Pressure Visibility Wind Dir Wind Speed Gust Speed Precip Events Conditions
12:51 AM 73.0 °F - 55.0 °F 53% 29.96 in 10.0 mi East 4.6 mph - N/A   Mostly Cloudy
1:51 AM 73.4 °F - 55.4 °F 53% 29.99 in 10.0 mi ESE 4.6 mph - N/A   Scattered Clouds
2:51 AM 73.0 °F - 55.0 °F 53% 29.94 in 10.0 mi ESE 5.8 mph - N/A   Scattered Clouds
3:51 AM 73.9 °F - 53.1 °F 48% 29.94 in 10.0 mi East 5.8 mph - N/A   Scattered Clouds
4:51 AM 71.1 °F - 55.0 °F 57% 29.94 in 10.0 mi ESE 3.5 mph - N/A   Mostly Cloudy
5:51 AM 72.0 °F - 55.0 °F 55% 29.95 in 10.0 mi Calm Calm - N/A   Mostly Cloudy
6:51 AM 75.9 °F - 54.0 °F 46% 29.95 in 10.0 mi Calm Calm - N/A   Mostly Cloudy
7:51 AM 81.0 °F 81.0 °F 57.0 °F 44% 29.96 in 10.0 mi Calm Calm - N/A   Scattered Clouds
8:51 AM 84.9 °F 84.2 °F 57.9 °F 40% 29.96 in 10.0 mi Variable 5.8 mph - N/A   Scattered Clouds
9:51 AM 89.1 °F 88.2 °F 59.0 °F 36% 29.95 in 10.0 mi SSW 8.1 mph - N/A   Scattered Clouds
10:51 AM 91.0 °F 88.9 °F 55.0 °F 29% 29.94 in 10.0 mi SSW 6.9 mph - N/A   Scattered Clouds
11:51 AM 93.0 °F 91.7 °F 57.0 °F 30% 29.98 in 10.0 mi Calm Calm - N/A   Mostly Cloudy
12:51 PM 91.9 °F 90.8 °F 57.9 °F 32% 29.94 in 10.0 mi East 9.2 mph - N/A   Mostly Cloudy
1:51 PM 95.0 °F 94.4 °F 59.0 °F 30% 29.93 in 10.0 mi SSE 8.1 mph - N/A   Mostly Cloudy
2:51 PM 95.0 °F 94.8 °F 60.1 °F 31% 29.90 in 10.0 mi East 6.9 mph - N/A   Scattered Clouds
3:51 PM 96.1 °F 96.0 °F 60.1 °F 30% 29.87 in 10.0 mi Variable 3.5 mph - N/A   Scattered Clouds
4:51 PM 98.1 °F 97.7 °F 59.0 °F 27% 29.86 in 10.0 mi Calm Calm - N/A   Partly Cloudy
5:51 PM 97.0 °F 96.9 °F 60.1 °F 29% 29.85 in 10.0 mi ENE 3.5 mph - N/A   Partly Cloudy
6:51 PM 93.9 °F 95.2 °F 63.0 °F 36% 29.85 in 10.0 mi East 12.7 mph - N/A   Partly Cloudy
7:51 PM 91.0 °F 90.9 °F 61.0 °F 36% 29.85 in 10.0 mi ESE 11.5 mph - N/A   Partly Cloudy
8:51 PM 90.0 °F 89.7 °F 60.1 °F 37% 29.85 in 10.0 mi ESE 11.5 mph - N/A   Partly Cloudy
9:51 PM 86.0 °F 86.3 °F 62.1 °F 44% 29.86 in 10.0 mi ESE 8.1 mph - N/A   Clear
10:51 PM 84.9 °F 85.4 °F 62.1 °F 46% 29.87 in 10.0 mi SE 9.2 mph - N/A   Clear
11:51 PM 86.0 °F 86.1 °F 61.0 °F 43% 29.86 in 10.0 mi SE 6.9 mph - N/A   Partly Cloudy